Wind_Speed
47 48 49 49 50 50 50 50 51 50 49 50 49 49 50 49 49 49 50 49 50 50 51 51 51 50 49 48 48 47 46 44 43 42 42 42 41 41
44 46 48 49 49 50 49 49 51 51 51 50 51 51 52 52 51 51 51 52 52 53 53 53 52 51 50 49 49 48 48 47 45 45 44 43 43 42
41 43 46 47 49 49 49 49 50 50 50 51 52 52 52 53 53 53 53 53 54 54 54 53 53 52 51 50 50 49 48 48 47 45 45 44 43 42
40 42 44 46 48 49 48 48 49 50 50 51 52 53 53 53 53 53 53 54 54 54 54 53 53 53 52 52 52 51 50 50 50 48 46 46 45 44
42 42 43 44 45 47 47 48 49 50 51 51 52 53 52 53 53 53 54 55 55 55 54 54 54 53 53 52 52 51 50 51 51 50 48 48 47 47
42 42 43 44 45 45 47 48 49 50 51 51 52 53 53 54 54 54 55 55 55 55 54 54 54 54 53 52 52 51 50 51 51 51 51 50 49 48
40 41 43 44 43 44 45 46 48 50 51 52 52 53 53 53 54 54 55 55 55 55 54 54 55 54 54 53 52 51 50 51 51 51 51 52 51 50
38 40 41 43 43 44 44 46 47 48 50 51 52 52 53 52 52 53 54 55 54 54 55 55 55 55 54 54 53 52 52 52 52 51 50 51 51 51
38 39 41 42 43 44 45 47 48 49 49 49 50 50 51 51 52 52 53 53 53 53 53 52 53 53 52 53 53 52 51 51 51 51 50 50 50 50
38 39 41 42 43 44 45 46 47 48 49 50 50 49 50 50 51 52 51 51 51 51 52 51 50 50 50 51 51 51 52 52 53 52 51 50 48 48
37 38 39 40 41 43 45 46 47 48 48 48 49 48 48 49 50 50 49 49 49 48 48 49 49 49 48 49 49 50 52 53 53 53 52 51 50 49
37 37 38 39 40 42 43 45 45 46 46 46 46 47 47 48 49 49 48 48 48 47 47 47 47 47 47 47 48 49 49 49 49 49 49 49 48 48
36 37 38 39 40 41 42 43 44 45 45 45 45 45 46 47 48 49 48 47 47 46 46 47 47 47 47 46 46 46 47 47 46 46 46 45 46 46
35 36 37 39 40 40 41 42 42 43 44 44 45 45 46 47 48 49 49 48 47 46 46 46 47 47 48 47 46 45 45 46 45 44 43 43 43 44
36 37 38 39 40 40 40 41 42 43 44 44 45 46 46 47 47 48 49 49 48 47 46 46 46 46 46 45 44 43 43 43 43 42 42 42 42 42
36 37 37 38 39 40 40 41 42 43 44 45 45 46 46 47 46 47 47 48 47 46 46 46 45 45 45 44 43 42 42 41 40 40 41 41 41 41
36 37 38 39 40 40 41 41 43 44 45 46 46 46 47 46 46 46 46 46 46 45 45 45 45 44 43 43 41 41 41 41 40 39 39 39 40 39
37 37 38 39 41 41 42 43 44 45 45 45 46 46 45 45 45 45 45 46 45 45 44 44 43 42 42 42 41 41 40 39 39 39 39 39 38 39
38 38 39 39 40 41 42 43 44 45 45 45 45 45 44 44 44 45 44 45 45 44 44 43 41 40 39 39 39 39 38 37 38 38 38 38 37 37
39 40 40 41 42 43 44 44 45 45 45 45 45 44 44 44 44 44 43 43 43 42 41 41 39 37 37 37 37 37 37 37 37 37 37 37 37 37
40 41 42 43 44 44 45 45 45 44 44 44 43 43 43 43 43 43 42 42 41 40 39 38 37 36 35 35 35 34 35 35 35 36 36 36 37 37
41 41 42 43 44 45 45 45 44 43 43 43 43 42 43 42 42 41 41 40 39 38 37 35 35 34 34 34 34 34 34 34 34 35 35 35 36 36
42 42 43 44 44 44 44 44 43 42 41 41 42 42 42 42 41 41 40 39 38 37 35 34 33 33 32 32 32 32 32 32 32 32 33 34 34 35
Wind_Direction
254 254 254 255 256 258 260 262 261 260 260 261 263 265 266 269 272 273 273 274 275 275 278 279 278 277 277 276 274 273 271 271 272 273 274 276 277 277
256 256 255 255 257 258 261 262 263 263 262 262 264 266 267 269 271 272 273 274 276 277 277 277 277 276 276 276 275 273 271 270 270 271 272 274 275 275
259 259 258 257 258 258 261 262 263 263 263 263 264 265 267 269 270 272 273 275 276 276 276 276 276 275 274 275 275 272 270 267 268 270 271 271 273 274
261 261 261 260 259 260 262 263 263 264 265 265 265 266 268 269 271 273 274 275 276 275 275 276 276 275 273 274 273 272 269 266 267 268 269 270 270 272
262 263 263 263 263 263 264 265 266 266 267 267 267 267 269 270 272 273 273 274 275 276 275 276 277 275 273 274 272 270 268 266 265 266 267 267 268 269
262 264 264 264 265 266 267 267 267 268 268 269 270 269 271 272 273 273 273 274 275 276 276 276 277 276 274 273 271 269 267 265 265 265 266 266 267 268
264 264 264 265 266 268 268 269 270 270 271 271 272 271 272 272 273 273 273 273 274 275 275 276 276 275 274 272 269 267 265 264 265 265 265 265 266 267
266 266 266 266 267 269 270 271 272 272 273 273 273 273 273 273 273 273 273 274 274 275 276 275 275 274 273 271 267 265 264 264 264 265 266 266 267 266
268 269 269 269 270 270 270 272 273 273 274 275 275 275 276 275 274 274 275 275 274 276 276 276 275 274 272 269 266 264 263 263 263 264 265 266 266 264
272 271 271 271 272 271 272 273 274 275 275 275 276 276 277 276 275 277 277 275 274 275 276 276 275 273 270 268 266 264 263 264 264 264 266 265 263 262
274 274 274 274 274 273 274 275 276 276 278 278 278 277 277 276 277 278 277 276 275 275 276 276 275 272 270 269 267 266 265 265 264 264 265 265 262 261
275 275 275 276 276 277 278 278 277 277 278 279 279 278 278 277 276 277 278 278 277 275 275 276 276 273 271 269 269 267 265 265 263 264 264 263 262 260
278 278 278 278 278 279 279 279 279 279 278 279 279 279 279 278 277 278 278 279 279 278 277 277 275 273 272 270 268 266 265 265 263 263 262 261 259 258
280 281 281 281 281 281 281 281 280 280 280 279 279 279 280 280 278 277 277 278 279 278 278 277 276 275 274 272 270 267 265 265 263 261 260 258 256 255
282 282 283 283 283 283 283 283 282 282 281 280 280 280 281 281 279 278 278 277 277 279 278 277 276 276 275 274 272 267 265 264 261 259 259 255 253 253
284 284 285 285 285 285 285 285 284 283 282 281 281 281 281 280 280 279 278 277 278 279 279 278 277 275 273 273 271 266 263 262 259 258 257 253 251 249
287 286 286 286 285 284 284 286 286 286 284 283 282 282 281 280 280 280 278 278 278 278 279 278 277 275 272 271 268 265 261 259 257 256 253 252 248 247
288 288 289 288 287 285 286 287 287 287 286 284 283 282 282 281 280 280 279 278 278 278 278 278 276 272 269 267 267 264 260 259 256 254 253 251 248 247
288 289 290 290 289 288 289 290 289 288 287 285 284 283 282 281 282 281 280 278 278 278 277 277 275 271 267 265 265 264 261 258 256 254 252 249 247 246
289 290 290 290 290 290 290 290 290 289 288 286 285 283 282 282 283 282 281 280 278 277 276 275 272 270 268 266 263 260 259 258 255 253 250 250 249 247
290 290 291 291 291 290 290 290 290 289 288 287 285 284 284 284 284 283 281 280 277 276 275 273 269 268 268 264 261 258 257 256 255 253 251 249 248 247
292 292 292 292 292 291 290 290 291 290 289 288 286 285 286 285 284 283 281 280 277 275 273 271 268 266 266 264 261 259 257 256 254 251 250 249 247 247
293 294 294 294 294 293 292 291 291 290 289 289 287 286 286 285 284 283 282 280 277 274 271 269 267 266 264 262 261 259 257 255 252 250 247 246 246 244
Height
5683 5685 5688 5690 5692 5695 5696 5698 5700 5703 5706 5709 5709 5710 5711 5710 5710 5710 5710 5709 5708 5708 5707 5705 5705 5704 5704 5703 5703 5704 5705 5705 5706 5707 5708 5708 5709 5709
5672 5674 5676 5678 5680 5682 5684 5685 5687 5689 5693 5696 5697 5697 5697 5697 5697 5696 5696 5696 5695 5693 5692 5691 5690 5690 5690 5689 5689 5690 5691 5692 5693 5694 5695 5695 5696 5696
5661 5663 5665 5666 5667 5669 5671 5672 5674 5675 5678 5682 5682 5683 5683 5683 5683 5682 5682 5681 5680 5679 5678 5677 5676 5675 5675 5675 5675 5676 5677 5678 5679 5680 5681 5683 5683 5683
5650 5652 5654 5655 5656 5657 5658 5659 5661 5662 5664 5667 5668 5668 5669 5668 5669 5668 5667 5666 5665 5664 5663 5662 5661 5660 5660 5660 5660 5661 5662 5663 5665 5666 5668 5670 5671 5670
5639 5641 5642 5643 5644 5645 5646 5647 5647 5648 5650 5652 5653 5654 5654 5654 5653 5653 5652 5651 5650 5649 5648 5647 5646 5645 5644 5645 5645 5645 5646 5648 5650 5652 5653 5655 5656 5657
5628 5629 5630 5631 5632 5633 5633 5634 5634 5635 5636 5637 5638 5639 5639 5638 5637 5638 5637 5636 5635 5634 5632 5631 5630 5629 5628 5629 5629 5629 5630 5632 5634 5636 5638 5640 5641 5642
5616 5617 5618 5619 5620 5620 5620 5621 5621 5621 5621 5622 5622 5623 5623 5623 5623 5622 5621 5621 5620 5618 5617 5616 5614 5613 5612 5611 5612 5613 5614 5616 5619 5620 5622 5623 5625 5626
5605 5605 5606 5606 5607 5607 5607 5607 5607 5607 5607 5607 5607 5607 5607 5607 5607 5606 5604 5604 5605 5605 5601 5600 5597 5597 5596 5596 5596 5597 5599 5600 5602 5604 5606 5607 5608 5610
5593 5593 5593 5593 5593 5593 5594 5593 5593 5592 5592 5592 5591 5591 5591 5591 5591 5590 5588 5586 5586 5585 5583 5583 5581 5580 5580 5579 5580 5581 5582 5584 5585 5587 5589 5590 5592 5593
5581 5581 5580 5580 5580 5580 5580 5580 5579 5578 5577 5576 5576 5576 5575 5574 5573 5572 5571 5570 5569 5568 5565 5565 5565 5564 5564 5563 5563 5564 5565 5567 5568 5570 5572 5573 5575 5576
5569 5568 5568 5567 5567 5567 5566 5565 5565 5563 5562 5561 5560 5559 5558 5558 5556 5555 5554 5553 5553 5553 5550 5549 5549 5548 5548 5548 5547 5547 5548 5549 5550 5552 5554 5556 5557 5559
5557 5556 5555 5555 5554 5552 5551 5550 5550 5549 5548 5546 5545 5544 5543 5542 5540 5539 5538 5537 5536 5537 5536 5533 5532 5531 5532 5534 5532 5531 5531 5532 5533 5535 5537 5538 5540 5541
5545 5544 5543 5542 5541 5539 5537 5536 5535 5534 5533 5532 5531 5529 5528 5526 5525 5524 5522 5521 5520 5520 5519 5517 5516 5515 5514 5517 5517 5516 5515 5516 5517 5519 5521 5522 5524 5526
5534 5533 5532 5530 5528 5526 5524 5522 5521 5520 5519 5518 5517 5515 5514 5512 5510 5509 5507 5506 5504 5504 5502 5501 5500 5499 5498 5499 5500 5501 5501 5501 5502 5504 5506 5508 5510 5512
5523 5521 5519 5518 5516 5514 5512 5510 5508 5507 5505 5504 5502 5501 5499 5497 5495 5494 5492 5491 5489 5488 5486 5485 5484 5483 5482 5482 5483 5484 5485 5487 5488 5490 5492 5494 5497 5500
5511 5510 5508 5505 5504 5502 5500 5497 5495 5493 5491 5490 5488 5486 5484 5482 5480 5479 5477 5476 5475 5473 5471 5469 5468 5468 5468 5468 5468 5469 5471 5472 5475 5476 5479 5481 5485 5488
5501 5498 5496 5494 5491 5489 5487 5484 5482 5479 5477 5474 5472 5471 5469 5467 5465 5463 5462 5461 5460 5459 5458 5456 5454 5453 5453 5453 5454 5456 5457 5460 5462 5463 5466 5469 5473 5476
5489 5487 5484 5482 5479 5476 5474 5471 5468 5465 5462 5459 5457 5455 5454 5452 5450 5448 5447 5446 5445 5444 5443 5442 5440 5440 5440 5441 5441 5443 5444 5446 5449 5451 5454 5457 5461 5464
5478 5475 5473 5470 5467 5464 5461 5457 5454 5451 5448 5445 5443 5440 5439 5437 5436 5434 5432 5431 5430 5429 5428 5427 5426 5426 5427 5429 5430 5430 5432 5434 5436 5439 5442 5446 5450 5453
5466 5463 5460 5457 5454 5451 5447 5444 5440 5437 5434 5431 5428 5426 5424 5423 5421 5419 5418 5417 5416 5415 5415 5413 5413 5413 5414 5417 5418 5419 5420 5422 5425 5428 5431 5434 5438 5441
5454 5451 5448 5445 5441 5438 5434 5430 5426 5423 5420 5417 5414 5412 5410 5408 5407 5405 5404 5403 5402 5401 5401 5401 5401 5402 5402 5403 5405 5408 5409 5411 5413 5416 5420 5423 5426 5430
5442 5439 5435 5432 5428 5424 5420 5416 5413 5409 5406 5403 5401 5398 5396 5394 5393 5391 5390 5389 5389 5389 5389 5389 5389 5390 5390 5392 5394 5396 5398 5400 5401 5404 5408 5411 5415 5419
5430 5426 5423 5418 5414 5410 5406 5403 5399 5396 5393 5390 5387 5385 5383 5381 5379 5378 5377 5376 5376 5376 5377 5377 5378 5379 5380 5381 5383 5385 5387 5389 5391 5393 5397 5400 5404 5408